Total_Precipitation_Accumulation
0.07 0.11 0.11 0.13 0.09 0.15 0.23 0.25 0.24 0.32 0.38 0.35 0.29 0.25 0.27 0.27 0.23 0.28 0.27 0.22 0.17 0.23 0.36 0.39 0.36 0.34 0.35 0.31 0.29 0.34 0.38 0.38 0.38 0.34 0.27 0.25 0.32 0.38 0.36 0.31 0.27 0.24 0.23
0.16 0.24 0.24 0.25 0.23 0.28 0.37 0.42 0.44 0.66 0.61 0.54 0.44 0.38 0.32 0.31 0.29 0.29 0.26 0.25 0.18 0.16 0.20 0.28 0.34 0.34 0.34 0.32 0.28 0.27 0.28 0.29 0.28 0.23 0.19 0.19 0.26 0.33 0.33 0.30 0.24 0.20 0.15
0.33 0.43 0.48 0.48 0.54 0.56 0.64 0.69 0.76 0.85 0.68 0.63 0.51 0.45 0.37 0.34 0.30 0.27 0.24 0.23 0.22 0.17 0.12 0.15 0.23 0.28 0.31 0.35 0.33 0.32 0.28 0.25 0.25 0.20 0.14 0.15 0.22 0.30 0.29 0.27 0.22 0.16 0.11
0.57 0.70 0.70 0.68 0.89 0.99 1.03 1.09 1.13 1.08 0.97 0.84 0.64 0.48 0.39 0.36 0.28 0.22 0.18 0.18 0.19 0.15 0.12 0.14 0.19 0.22 0.26 0.33 0.40 0.41 0.37 0.35 0.33 0.26 0.18 0.15 0.22 0.28 0.26 0.24 0.19 0.13 0.09
0.81 0.95 0.87 0.95 1.17 1.26 1.31 1.22 1.31 1.25 1.18 1.08 0.84 0.63 0.45 0.33 0.23 0.17 0.13 0.11 0.12 0.11 0.08 0.09 0.10 0.13 0.24 0.38 0.43 0.44 0.44 0.46 0.42 0.35 0.30 0.25 0.25 0.26 0.26 0.25 0.21 0.16 0.11
1.03 1.20 1.09 1.17 1.36 1.46 1.42 1.44 1.45 1.43 1.32 1.28 0.98 0.67 0.47 0.31 0.20 0.14 0.11 0.09 0.08 0.05 0.04 0.07 0.14 0.11 0.18 0.31 0.35 0.41 0.45 0.48 0.46 0.42 0.41 0.39 0.39 0.39 0.35 0.31 0.31 0.27 0.20
1.04 1.25 1.21 1.32 1.36 1.32 1.36 1.51 1.60 1.43 1.27 1.39 1.15 0.67 0.37 0.25 0.19 0.16 0.18 0.18 0.11 0.06 0.05 0.07 0.12 0.16 0.17 0.18 0.25 0.33 0.46 0.54 0.53 0.49 0.46 0.49 0.57 0.66 0.53 0.50 0.52 0.46 0.37
1.13 1.15 1.17 1.18 1.21 1.30 1.36 1.42 1.61 1.42 1.12 1.27 1.22 0.96 0.50 0.34 0.31 0.24 0.25 0.25 0.19 0.14 0.11 0.11 0.15 0.24 0.25 0.28 0.30 0.24 0.37 0.55 0.57 0.60 0.57 0.59 0.71 0.84 0.72 0.74 0.71 0.61 0.51
1.04 1.06 1.07 1.18 1.34 1.42 1.33 1.34 1.41 1.34 1.09 1.08 1.18 1.21 0.82 0.56 0.39 0.18 0.19 0.22 0.27 0.30 0.26 0.25 0.25 0.29 0.32 0.38 0.49 0.47 0.32 0.37 0.46 0.62 0.72 0.74 0.76 0.80 0.90 1.00 0.93 0.75 0.58
0.98 0.98 1.01 1.05 1.08 1.11 1.09 1.03 1.12 1.23 1.18 1.03 1.11 1.15 1.08 0.92 0.73 0.39 0.25 0.26 0.34 0.38 0.38 0.34 0.27 0.24 0.31 0.45 0.60 0.66 0.57 0.47 0.41 0.56 0.73 0.81 0.79 0.79 0.95 1.10 1.16 0.98 0.68
0.86 0.86 0.83 0.82 0.78 0.79 0.87 0.91 0.97 1.03 1.07 1.03 1.04 1.09 1.09 1.06 1.06 0.89 0.56 0.51 0.49 0.40 0.41 0.38 0.31 0.29 0.33 0.41 0.48 0.55 0.62 0.55 0.55 0.52 0.49 0.58 0.67 0.72 0.82 1.02 1.25 1.22 0.96
0.74 0.71 0.73 0.72 0.70 0.73 0.81 0.85 0.88 0.85 0.90 0.94 0.99 1.04 1.06 1.05 1.12 1.14 0.90 0.74 0.60 0.46 0.45 0.41 0.35 0.33 0.35 0.36 0.36 0.43 0.44 0.42 0.48 0.53 0.48 0.51 0.51 0.54 0.65 0.85 1.09 1.25 1.21
0.55 0.55 0.55 0.62 0.65 0.72 0.73 0.72 0.78 0.83 0.89 0.92 0.94 0.99 1.02 0.98 0.96 1.00 0.98 0.82 0.69 0.56 0.54 0.50 0.40 0.35 0.30 0.34 0.35 0.31 0.26 0.23 0.23 0.28 0.29 0.32 0.36 0.41 0.52 0.64 0.80 0.95 1.11
0.42 0.44 0.51 0.60 0.67 0.70 0.71 0.73 0.72 0.76 0.85 0.90 0.93 1.01 0.92 0.84 0.85 0.91 0.96 0.91 0.75 0.66 0.68 0.56 0.44 0.36 0.33 0.33 0.28 0.20 0.20 0.15 0.14 0.14 0.12 0.14 0.17 0.21 0.31 0.44 0.57 0.67 0.75
0.38 0.40 0.46 0.56 0.69 0.79 0.83 0.82 0.81 0.85 0.97 1.04 1.11 1.09 0.95 0.85 0.83 0.86 0.94 0.97 0.86 0.68 0.62 0.60 0.49 0.36 0.31 0.27 0.20 0.20 0.28 0.22 0.13 0.10 0.08 0.07 0.09 0.11 0.15 0.24 0.35 0.46 0.52
0.34 0.39 0.47 0.54 0.60 0.66 0.71 0.71 0.79 0.89 0.98 1.00 0.98 0.98 0.95 0.92 0.92 0.88 0.93 0.97 0.93 0.77 0.56 0.61 0.58 0.39 0.37 0.22 0.19 0.20 0.23 0.20 0.14 0.10 0.07 0.07 0.08 0.09 0.11 0.15 0.21 0.29 0.37
0.33 0.38 0.43 0.43 0.44 0.46 0.48 0.52 0.63 0.76 0.81 0.78 0.70 0.69 0.67 0.68 0.70 0.70 0.71 0.73 0.79 0.77 0.59 0.62 0.78 0.62 0.51 0.36 0.29 0.30 0.22 0.18 0.19 0.13 0.09 0.08 0.08 0.10 0.14 0.14 0.16 0.20 0.25
0.28 0.31 0.33 0.33 0.33 0.37 0.43 0.49 0.58 0.65 0.69 0.66 0.60 0.54 0.48 0.49 0.54 0.52 0.53 0.57 0.65 0.74 0.69 0.61 0.70 0.74 0.64 0.46 0.40 0.39 0.29 0.20 0.23 0.20 0.13 0.10 0.09 0.10 0.15 0.17 0.16 0.16 0.18
0.21 0.23 0.27 0.31 0.35 0.42 0.51 0.62 0.69 0.68 0.59 0.50 0.43 0.36 0.32 0.33 0.39 0.41 0.44 0.47 0.51 0.67 0.68 0.62 0.64 0.76 0.71 0.57 0.57 0.49 0.46 0.48 0.35 0.29 0.19 0.13 0.14 0.15 0.17 0.21 0.20 0.20 0.19
0.23 0.28 0.32 0.38 0.46 0.50 0.54 0.57 0.58 0.60 0.55 0.46 0.35 0.26 0.21 0.23 0.29 0.34 0.38 0.41 0.43 0.46 0.53 0.58 0.60 0.69 0.68 0.56 0.67 0.65 0.60 0.60 0.55 0.44 0.36 0.22 0.17 0.20 0.22 0.22 0.24 0.27 0.29
0.21 0.30 0.36 0.40 0.48 0.46 0.45 0.45 0.41 0.35 0.33 0.32 0.28 0.21 0.19 0.18 0.20 0.22 0.26 0.33 0.36 0.38 0.40 0.47 0.54 0.60 0.68 0.59 0.54 0.61 0.64 0.65 0.67 0.71 0.74 0.51 0.29 0.25 0.26 0.27 0.29 0.35 0.43
0.17 0.22 0.23 0.26 0.30 0.29 0.26 0.25 0.26 0.23 0.20 0.19 0.19 0.15 0.14 0.14 0.15 0.17 0.18 0.17 0.17 0.20 0.26 0.34 0.39 0.45 0.54 0.59 0.52 0.55 0.63 0.66 0.70 0.75 0.89 0.96 0.72 0.53 0.45 0.30 0.27 0.33 0.45
0.18 0.19 0.17 0.14 0.15 0.17 0.17 0.16 0.15 0.15 0.15 0.14 0.12 0.09 0.07 0.07 0.08 0.07 0.08 0.08 0.10 0.08 0.09 0.18 0.19 0.18 0.23 0.28 0.36 0.51 0.67 0.73 0.83 0.96 0.99 1.13 1.28 1.11 0.76 0.50 0.38 0.30 0.37
0.24 0.25 0.19 0.14 0.11 0.09 0.08 0.09 0.10 0.10 0.10 0.11 0.11 0.08 0.05 0.04 0.04 0.04 0.05 0.08 0.07 0.03 0.02 0.03 0.03 0.03 0.04 0.07 0.11 0.19 0.40 0.69 0.84 0.99 1.09 1.27 1.47 1.74 1.39 0.91 0.67 0.48 0.45
0.25 0.28 0.22 0.17 0.13 0.09 0.05 0.05 0.09 0.12 0.11 0.09 0.09 0.08 0.06 0.03 0.02 0.02 0.03 0.05 0.04 0.02 0.01 0.01 0.01 0.00 0.01 0.01 0.03 0.09 0.15 0.26 0.50 0.88 1.13 1.35 1.50 1.69 2.04 1.69 1.06 0.66 0.48
0.25 0.25 0.24 0.24 0.20 0.15 0.07 0.04 0.06 0.07 0.08 0.07 0.07 0.05 0.04 0.03 0.02 0.01 0.02 0.02 0.02 0.01 0.01 0.01 0.02 0.02 0.01 0.01 0.01 0.03 0.06 0.11 0.21 0.43 0.69 0.85 1.01 1.22 1.72 2.09 1.79 1.21 0.79